Time,TemperatureF,DewpointF,PressureIn,WindDirection,WindDirectionDegrees,WindSpeedMPH,WindSpeedGustMPH,Humidity,HourlyPrecipIn,Conditions,Clouds,dailyrainin,SoftwareType,DateUTC
2013-03-10 00:02:00,48.7,44.7,29.76,SE,141,1.0,15.0,86,0.00,,,0.41,Wunderground v.1.15,2013-03-10 06:02:00,
2013-03-10 00:12:00,48.6,44.6,29.76,SE,144,1.0,1.0,86,0.00,,,0.00,Wunderground v.1.15,2013-03-10 06:12:00,
2013-03-10 00:22:00,48.6,44.6,29.77,SE,144,0.0,0.0,86,0.00,,,0.00,Wunderground v.1.15,2013-03-10 06:22:00,
2013-03-10 00:32:00,48.4,45.0,29.76,SE,144,1.0,3.0,88,0.09,,,0.02,Wunderground v.1.15,2013-03-10 06:32:00,
2013-03-10 00:42:00,48.1,45.0,29.76,SE,142,2.0,2.0,89,0.05,,,0.02,Wunderground v.1.15,2013-03-10 06:42:00,
2013-03-10 00:52:00,47.9,45.1,29.76,SE,142,0.0,0.0,90,0.00,,,0.02,Wunderground v.1.15,2013-03-10 06:52:00,
2013-03-10 01:02:00,47.7,44.9,29.76,SE,142,0.0,9.0,90,0.00,,,0.02,Wunderground v.1.15,2013-03-10 07:02:00,
2013-03-10 01:12:00,47.6,44.8,29.77,SE,142,0.0,0.0,90,0.00,,,0.02,Wunderground v.1.15,2013-03-10 07:12:00,
2013-03-10 01:22:00,47.4,44.9,29.77,SE,142,0.0,0.0,91,0.00,,,0.02,Wunderground v.1.15,2013-03-10 07:22:00,
2013-03-10 01:32:00,47.2,44.7,29.77,SE,142,0.0,0.0,91,0.00,,,0.02,Wunderground v.1.15,2013-03-10 07:32:00,
2013-03-10 01:42:00,46.9,44.7,29.77,NNE,27,2.0,2.0,92,0.00,,,0.02,Wunderground v.1.15,2013-03-10 07:42:00,
2013-03-10 01:52:00,46.7,44.5,29.77,NNE,27,0.0,0.0,92,0.00,,,0.03,Wunderground v.1.15,2013-03-10 07:52:00,
2013-03-10 03:02:00,46.5,44.3,29.76,NNE,33,0.0,4.0,92,0.39,,,0.05,Wunderground v.1.15,2013-03-10 08:02:00,
2013-03-10 03:12:00,46.5,44.6,29.76,NE,36,2.0,2.0,93,0.07,,,0.06,Wunderground v.1.15,2013-03-10 08:12:00,
2013-03-10 03:22:00,46.4,44.8,29.76,East,86,2.0,2.0,94,0.15,,,0.09,Wunderground v.1.15,2013-03-10 08:22:00,
2013-03-10 03:32:00,46.5,44.9,29.77,East,86,0.0,0.0,94,0.12,,,0.12,Wunderground v.1.15,2013-03-10 08:32:00,
2013-03-10 03:42:00,46.6,45.0,29.76,ESE,103,0.0,0.0,94,0.20,,,0.15,Wunderground v.1.15,2013-03-10 08:42:00,
2013-03-10 03:52:00,46.8,45.4,29.76,ESE,103,0.0,0.0,95,0.10,,,0.17,Wunderground v.1.15,2013-03-10 08:52:00,
2013-03-10 04:02:00,47.0,45.6,29.77,ESE,105,1.0,5.0,95,0.04,,,0.18,Wunderground v.1.15,2013-03-10 09:02:00,
2013-03-10 04:12:00,47.3,45.9,29.77,ESE,114,1.0,2.0,95,0.20,,,0.22,Wunderground v.1.15,2013-03-10 09:12:00,
2013-03-10 04:22:00,47.8,46.7,29.77,South,178,2.0,2.0,96,0.13,,,0.24,Wunderground v.1.15,2013-03-10 09:22:00,
2013-03-10 04:32:00,48.2,47.1,29.76,South,188,1.0,1.0,96,0.15,,,0.27,Wunderground v.1.15,2013-03-10 09:32:00,
2013-03-10 04:42:00,48.4,47.3,29.76,SSE,167,1.0,1.0,96,0.17,,,0.30,Wunderground v.1.15,2013-03-10 09:42:00,
2013-03-10 04:52:00,48.9,48.1,29.76,South,188,3.0,3.0,97,0.20,,,0.33,Wunderground v.1.15,2013-03-10 09:52:00,
2013-03-10 05:02:00,49.2,48.1,29.76,South,187,3.0,6.0,96,0.23,,,0.38,Wunderground v.1.15,2013-03-10 10:02:00,
2013-03-10 05:12:00,49.4,48.6,29.75,South,183,3.0,3.0,97,0.10,,,0.40,Wunderground v.1.15,2013-03-10 10:12:00,
2013-03-10 05:22:00,49.6,48.8,29.75,South,181,3.0,3.0,97,0.10,,,0.42,Wunderground v.1.15,2013-03-10 10:22:00,
2013-03-10 05:32:00,49.8,49.0,29.75,South,187,5.0,7.0,97,0.06,,,0.43,Wunderground v.1.15,2013-03-10 10:32:00,
2013-03-10 05:42:00,49.8,49.0,29.74,SSE,148,6.0,7.0,97,0.14,,,0.45,Wunderground v.1.15,2013-03-10 10:42:00,
2013-03-10 05:52:00,49.6,48.8,29.72,SSE,165,5.0,5.0,97,0.12,,,0.47,Wunderground v.1.15,2013-03-10 10:52:00,
2013-03-10 06:02:00,49.2,48.4,29.73,South,169,7.0,9.0,97,0.05,,,0.47,Wunderground v.1.15,2013-03-10 11:02:00,
2013-03-10 06:12:00,49.2,48.4,29.73,SSW,200,7.0,7.0,97,0.00,,,0.48,Wunderground v.1.15,2013-03-10 11:12:00,
2013-03-10 06:22:00,49.4,48.6,29.73,SSE,157,6.0,7.0,97,0.00,,,0.48,Wunderground v.1.15,2013-03-10 11:22:00,
2013-03-10 06:32:00,49.4,48.6,29.72,SSE,163,6.0,6.0,97,0.04,,,0.49,Wunderground v.1.15,2013-03-10 11:32:00,
2013-03-10 06:42:00,49.2,48.4,29.72,South,175,4.0,4.0,97,0.00,,,0.49,Wunderground v.1.15,2013-03-10 11:42:00,
2013-03-10 06:52:00,48.9,48.1,29.73,SSE,166,4.0,6.0,97,0.00,,,0.49,Wunderground v.1.15,2013-03-10 11:52:00,
2013-03-10 07:02:00,48.6,47.5,29.71,SSE,155,6.0,16.0,96,0.00,,,0.49,Wunderground v.1.15,2013-03-10 12:02:00,
2013-03-10 07:12:00,48.4,47.3,29.71,SSE,154,5.0,5.0,96,0.00,,,0.49,Wunderground v.1.15,2013-03-10 12:12:00,
2013-03-10 07:22:00,48.5,47.7,29.72,South,186,5.0,9.0,97,0.00,,,0.49,Wunderground v.1.15,2013-03-10 12:22:00,
2013-03-10 07:32:00,48.5,47.4,29.73,SW,217,4.0,4.0,96,0.00,,,0.49,Wunderground v.1.15,2013-03-10 12:32:00,
2013-03-10 07:42:00,48.5,47.7,29.71,SE,144,3.0,4.0,97,0.00,,,0.49,Wunderground v.1.15,2013-03-10 12:42:00,
2013-03-10 07:52:00,48.4,47.6,29.72,South,191,4.0,6.0,97,0.00,,,0.49,Wunderground v.1.15,2013-03-10 12:52:00,
2013-03-10 08:02:00,48.4,47.6,29.74,South,188,5.0,5.0,97,0.00,,,0.50,Wunderground v.1.15,2013-03-10 13:02:00,
2013-03-10 08:12:00,48.6,47.8,29.75,SSW,209,6.0,6.0,97,0.05,,,0.50,Wunderground v.1.15,2013-03-10 13:12:00,
2013-03-10 08:22:00,48.5,47.4,29.75,South,184,4.0,4.0,96,0.06,,,0.52,Wunderground v.1.15,2013-03-10 13:22:00,
2013-03-10 08:32:00,48.6,47.5,29.75,SSE,162,4.0,4.0,96,0.06,,,0.52,Wunderground v.1.15,2013-03-10 13:32:00,
2013-03-10 08:42:00,48.6,47.5,29.75,SSE,159,5.0,7.0,96,0.00,,,0.52,Wunderground v.1.15,2013-03-10 13:42:00,
2013-03-10 08:52:00,48.7,47.6,29.74,SSE,163,4.0,4.0,96,0.00,,,0.52,Wunderground v.1.15,2013-03-10 13:52:00,
2013-03-10 09:02:00,48.7,47.6,29.74,SSE,158,5.0,12.0,96,0.00,,,0.53,Wunderground v.1.15,2013-03-10 14:02:00,
2013-03-10 09:12:00,48.9,47.8,29.73,South,172,5.0,6.0,96,0.00,,,0.53,Wunderground v.1.15,2013-03-10 14:12:00,
2013-03-10 09:22:00,49.0,47.6,29.73,SSE,154,5.0,7.0,95,0.00,,,0.53,Wunderground v.1.15,2013-03-10 14:22:00,
2013-03-10 09:32:00,49.0,47.6,29.74,SSE,151,6.0,7.0,95,0.00,,,0.54,Wunderground v.1.15,2013-03-10 14:32:00,
2013-03-10 09:42:00,49.1,47.7,29.74,SSE,155,5.0,5.0,95,0.00,,,0.54,Wunderground v.1.15,2013-03-10 14:42:00,
2013-03-10 09:52:00,49.2,47.8,29.73,SSE,158,5.0,5.0,95,0.00,,,0.55,Wunderground v.1.15,2013-03-10 14:52:00,
2013-03-10 10:02:00,49.5,48.1,29.73,South,177,6.0,6.0,95,0.00,,,0.55,Wunderground v.1.15,2013-03-10 15:02:00,
2013-03-10 10:12:00,49.9,48.5,29.73,South,184,6.0,6.0,95,0.00,,,0.55,Wunderground v.1.15,2013-03-10 15:12:00,
2013-03-10 10:22:00,50.4,49.0,29.72,SSE,156,6.0,8.0,95,0.00,,,0.55,Wunderground v.1.15,2013-03-10 15:22:00,
2013-03-10 10:32:00,51.4,50.3,29.72,SSE,168,4.0,4.0,96,0.00,,,0.56,Wunderground v.1.15,2013-03-10 15:32:00,
2013-03-10 10:42:00,51.7,50.3,29.70,SSE,157,5.0,5.0,95,0.00,,,0.56,Wunderground v.1.15,2013-03-10 15:42:00,
2013-03-10 10:52:00,52.2,51.1,29.66,SE,130,5.0,6.0,96,0.00,,,0.56,Wunderground v.1.15,2013-03-10 15:52:00,
2013-03-10 11:02:00,52.5,51.1,29.69,SSW,198,5.0,11.0,95,0.00,,,0.56,Wunderground v.1.15,2013-03-10 16:02:00,
2013-03-10 11:12:00,52.2,50.5,29.72,SSE,158,6.0,7.0,94,0.00,,,0.56,Wunderground v.1.15,2013-03-10 16:12:00,
2013-03-10 11:22:00,52.1,50.4,29.71,SSE,157,6.0,6.0,94,0.00,,,0.56,Wunderground v.1.15,2013-03-10 16:22:00,
2013-03-10 11:32:00,51.9,49.9,29.71,SSE,161,5.0,7.0,93,0.00,,,0.56,Wunderground v.1.15,2013-03-10 16:32:00,
2013-03-10 11:42:00,51.9,49.9,29.70,ESE,122,4.0,4.0,93,0.00,,,0.56,Wunderground v.1.15,2013-03-10 16:42:00,
2013-03-10 11:52:00,51.8,49.8,29.70,SSE,158,4.0,4.0,93,0.00,,,0.57,Wunderground v.1.15,2013-03-10 16:52:00,
2013-03-10 12:02:00,51.8,50.1,29.71,SSE,159,5.0,12.0,94,0.05,,,0.58,Wunderground v.1.15,2013-03-10 17:02:00,
2013-03-10 12:12:00,51.8,50.1,29.73,South,170,5.0,5.0,94,0.12,,,0.60,Wunderground v.1.15,2013-03-10 17:12:00,
2013-03-10 12:22:00,52.0,50.6,29.73,SSE,156,6.0,6.0,95,0.23,,,0.63,Wunderground v.1.15,2013-03-10 17:22:00,
2013-03-10 12:32:00,52.3,51.2,29.71,SSE,167,5.0,5.0,96,0.17,,,0.67,Wunderground v.1.15,2013-03-10 17:32:00,
2013-03-10 12:42:00,52.4,51.3,29.69,SE,140,4.0,9.0,96,0.09,,,0.68,Wunderground v.1.15,2013-03-10 17:42:00,
2013-03-10 12:52:00,52.3,51.2,29.70,SE,136,4.0,7.0,96,0.06,,,0.69,Wunderground v.1.15,2013-03-10 17:52:00,
2013-03-10 13:02:00,52.2,51.1,29.69,South,180,3.0,11.0,96,0.00,,,0.70,Wunderground v.1.15,2013-03-10 18:02:00,
2013-03-10 13:12:00,52.3,51.5,29.67,SSE,158,3.0,3.0,97,0.08,,,0.71,Wunderground v.1.15,2013-03-10 18:12:00,
2013-03-10 13:22:00,52.6,51.8,29.67,SSE,165,2.0,2.0,97,0.04,,,0.71,Wunderground v.1.15,2013-03-10 18:22:00,
2013-03-10 13:32:00,52.7,51.9,29.65,SSE,157,0.0,0.0,97,0.00,,,0.72,Wunderground v.1.15,2013-03-10 18:32:00,
2013-03-10 13:42:00,53.0,52.2,29.65,SSE,157,1.0,1.0,97,0.06,,,0.73,Wunderground v.1.15,2013-03-10 18:42:00,
2013-03-10 13:52:00,53.0,52.2,29.63,SSE,157,0.0,0.0,97,0.14,,,0.76,Wunderground v.1.15,2013-03-10 18:52:00,
2013-03-10 14:02:00,53.0,52.2,29.62,SSE,157,0.0,9.0,97,0.21,,,0.78,Wunderground v.1.15,2013-03-10 19:02:00,
2013-03-10 14:12:00,53.1,52.3,29.62,SSE,157,0.0,0.0,97,0.12,,,0.80,Wunderground v.1.15,2013-03-10 19:12:00,
2013-03-10 14:22:00,53.2,52.4,29.63,SSE,157,0.0,0.0,97,0.13,,,0.82,Wunderground v.1.15,2013-03-10 19:22:00,
2013-03-10 14:32:00,53.2,52.4,29.63,SSE,157,0.0,0.0,97,0.14,,,0.85,Wunderground v.1.15,2013-03-10 19:32:00,
2013-03-10 14:42:00,53.1,52.3,29.64,SSE,157,0.0,0.0,97,0.16,,,0.87,Wunderground v.1.15,2013-03-10 19:42:00,
2013-03-10 14:52:00,53.0,52.2,29.65,South,191,2.0,2.0,97,0.34,,,0.93,Wunderground v.1.15,2013-03-10 19:52:00,
2013-03-10 15:02:00,53.0,52.5,29.64,SW,234,5.0,6.0,98,0.30,,,0.99,Wunderground v.1.15,2013-03-10 20:02:00,
2013-03-10 15:12:00,52.8,52.3,29.64,SW,236,3.0,3.0,98,0.33,,,1.03,Wunderground v.1.15,2013-03-10 20:12:00,
2013-03-10 15:22:00,52.7,52.2,29.64,SW,236,1.0,1.0,98,0.17,,,1.07,Wunderground v.1.15,2013-03-10 20:22:00,
2013-03-10 15:32:00,52.6,52.1,29.63,SW,236,0.0,0.0,98,0.13,,,1.09,Wunderground v.1.15,2013-03-10 20:32:00,
2013-03-10 15:42:00,52.7,52.2,29.63,SW,236,2.0,4.0,98,0.09,,,1.11,Wunderground v.1.15,2013-03-10 20:42:00,
2013-03-10 15:52:00,52.8,52.3,29.63,West,279,3.0,5.0,98,0.08,,,1.12,Wunderground v.1.15,2013-03-10 20:52:00,
2013-03-10 16:02:00,52.7,52.2,29.62,West,279,3.0,3.0,98,0.04,,,1.12,Wunderground v.1.15,2013-03-10 21:02:00,
2013-03-10 16:12:00,53.0,52.5,29.60,West,279,2.0,2.0,98,0.00,,,1.12,Wunderground v.1.15,2013-03-10 21:12:00,
2013-03-10 16:22:00,53.0,52.5,29.61,West,279,0.0,0.0,98,0.00,,,1.13,Wunderground v.1.15,2013-03-10 21:22:00,
2013-03-10 16:32:00,53.0,52.5,29.61,West,279,0.0,0.0,98,0.00,,,1.13,Wunderground v.1.15,2013-03-10 21:32:00,
2013-03-10 16:42:00,52.7,52.2,29.58,West,279,0.0,0.0,98,0.00,,,1.13,Wunderground v.1.15,2013-03-10 21:42:00,
2013-03-10 16:52:00,52.5,52.0,29.55,ESE,105,3.0,3.0,98,0.00,,,1.13,Wunderground v.1.15,2013-03-10 21:52:00,
2013-03-10 17:02:00,52.4,51.9,29.57,SSE,148,3.0,5.0,98,0.00,,,1.13,Wunderground v.1.15,2013-03-10 22:02:00,
2013-03-10 17:12:00,52.3,51.8,29.59,South,178,2.0,2.0,98,0.00,,,1.13,Wunderground v.1.15,2013-03-10 22:12:00,
2013-03-10 17:22:00,52.3,51.8,29.60,SSW,209,3.0,3.0,98,0.00,,,1.13,Wunderground v.1.15,2013-03-10 22:22:00,
2013-03-10 17:32:00,52.4,51.9,29.60,SSW,209,3.0,3.0,98,0.00,,,1.13,Wunderground v.1.15,2013-03-10 22:32:00,
2013-03-10 17:42:00,52.6,52.1,29.60,South,184,3.0,3.0,98,0.00,,,1.13,Wunderground v.1.15,2013-03-10 22:42:00,
2013-03-10 17:52:00,52.6,52.1,29.60,South,186,3.0,3.0,98,0.00,,,1.13,Wunderground v.1.15,2013-03-10 22:52:00,
2013-03-10 18:02:00,52.5,52.0,29.59,South,182,3.0,9.0,98,0.00,,,1.13,Wunderground v.1.15,2013-03-10 23:02:00,
2013-03-10 18:12:00,52.5,52.0,29.59,South,190,4.0,4.0,98,0.00,,,1.13,Wunderground v.1.15,2013-03-10 23:12:00,
2013-03-10 18:22:00,52.4,51.9,29.60,South,178,3.0,5.0,98,0.00,,,1.13,Wunderground v.1.15,2013-03-10 23:22:00,
2013-03-10 18:32:00,52.1,51.6,29.60,SSW,192,3.0,3.0,98,0.00,,,1.13,Wunderground v.1.15,2013-03-10 23:32:00,
2013-03-10 18:42:00,51.9,51.4,29.60,South,174,3.0,4.0,98,0.00,,,1.13,Wunderground v.1.15,2013-03-10 23:42:00,
2013-03-10 18:52:00,51.8,51.3,29.61,South,186,3.0,5.0,98,0.00,,,1.13,Wunderground v.1.15,2013-03-10 23:52:00,
2013-03-10 19:02:00,51.7,51.2,29.61,South,181,2.0,6.0,98,0.00,,,1.13,Wunderground v.1.15,2013-03-11 00:02:00,
2013-03-10 19:12:00,51.7,51.2,29.62,South,186,4.0,4.0,98,0.00,,,1.13,Wunderground v.1.15,2013-03-11 00:12:00,
2013-03-10 19:22:00,51.6,51.1,29.62,SSW,196,4.0,4.0,98,0.00,,,1.13,Wunderground v.1.15,2013-03-11 00:22:00,
2013-03-10 19:32:00,51.6,51.1,29.62,South,175,5.0,6.0,98,0.00,,,1.14,Wunderground v.1.15,2013-03-11 00:32:00,
2013-03-10 19:42:00,51.5,51.0,29.62,SSW,201,5.0,5.0,98,0.08,,,1.15,Wunderground v.1.15,2013-03-11 00:42:00,
2013-03-10 19:52:00,51.5,51.0,29.63,SSW,201,4.0,4.0,98,0.00,,,1.15,Wunderground v.1.15,2013-03-11 00:52:00,
2013-03-10 20:02:00,51.4,50.9,29.63,South,181,6.0,8.0,98,0.00,,,1.15,Wunderground v.1.15,2013-03-11 01:02:00,
2013-03-10 20:12:00,51.3,50.8,29.63,SSW,203,6.0,6.0,98,0.00,,,1.16,Wunderground v.1.15,2013-03-11 01:12:00,
2013-03-10 20:22:00,51.1,50.6,29.64,South,188,7.0,8.0,98,0.00,,,1.16,Wunderground v.1.15,2013-03-11 01:22:00,
2013-03-10 20:32:00,51.1,50.6,29.64,South,175,7.0,7.0,98,0.00,,,1.16,Wunderground v.1.15,2013-03-11 01:32:00,
2013-03-10 20:42:00,51.1,50.6,29.64,South,184,6.0,6.0,98,0.00,,,1.16,Wunderground v.1.15,2013-03-11 01:42:00,
2013-03-10 20:52:00,51.0,50.5,29.64,South,186,6.0,6.0,98,0.00,,,1.17,Wunderground v.1.15,2013-03-11 01:52:00,
2013-03-10 21:02:00,51.0,50.5,29.64,South,182,7.0,7.0,98,0.00,,,1.17,Wunderground v.1.15,2013-03-11 02:02:00,
2013-03-10 21:12:00,51.0,50.5,29.64,SSW,195,7.0,7.0,98,0.00,,,1.17,Wunderground v.1.15,2013-03-11 02:12:00,
2013-03-10 21:22:00,51.0,50.5,29.64,South,186,7.0,7.0,98,0.00,,,1.17,Wunderground v.1.15,2013-03-11 02:22:00,
2013-03-10 21:32:00,50.9,50.6,29.64,South,181,6.0,6.0,99,0.00,,,1.17,Wunderground v.1.15,2013-03-11 02:32:00,
2013-03-10 21:42:00,50.8,50.5,29.64,SSW,207,6.0,6.0,99,0.00,,,1.17,Wunderground v.1.15,2013-03-11 02:42:00,
2013-03-10 21:52:00,50.8,50.5,29.64,South,184,6.0,6.0,99,0.00,,,1.17,Wunderground v.1.15,2013-03-11 02:52:00,
2013-03-10 22:02:00,50.8,50.5,29.64,South,185,7.0,13.0,99,0.00,,,1.17,Wunderground v.1.15,2013-03-11 03:02:00,
2013-03-10 22:12:00,50.8,50.5,29.64,SSW,204,7.0,7.0,99,0.00,,,1.17,Wunderground v.1.15,2013-03-11 03:12:00,
2013-03-10 22:22:00,50.7,50.2,29.65,South,174,7.0,8.0,98,0.00,,,1.17,Wunderground v.1.15,2013-03-11 03:22:00,
2013-03-10 22:32:00,50.6,50.1,29.65,SSW,194,7.0,7.0,98,0.00,,,1.17,Wunderground v.1.15,2013-03-11 03:32:00,
2013-03-10 22:42:00,50.5,50.0,29.65,SSW,211,6.0,6.0,98,0.00,,,1.17,Wunderground v.1.15,2013-03-11 03:42:00,
2013-03-10 22:52:00,50.4,49.9,29.64,SSW,208,7.0,8.0,98,0.00,,,1.17,Wunderground v.1.15,2013-03-11 03:52:00,
2013-03-10 23:02:00,50.2,49.7,29.64,SSW,202,6.0,6.0,98,0.00,,,1.17,Wunderground v.1.15,2013-03-11 04:02:00,
2013-03-10 23:12:00,49.8,49.3,29.64,SSW,194,6.0,7.0,98,0.00,,,1.17,Wunderground v.1.15,2013-03-11 04:12:00,
2013-03-10 23:22:00,49.9,49.4,29.63,SE,144,6.0,12.0,98,0.00,,,1.17,Wunderground v.1.15,2013-03-11 04:22:00,
2013-03-10 23:32:00,49.7,49.2,29.63,SSW,213,8.0,8.0,98,0.00,,,1.17,Wunderground v.1.15,2013-03-11 04:32:00,
2013-03-10 23:42:00,49.8,49.5,29.63,SSW,212,7.0,7.0,99,0.00,,,1.17,Wunderground v.1.15,2013-03-11 04:42:00,
2013-03-10 23:52:00,49.8,49.5,29.63,SW,217,5.0,5.0,99,0.00,,,1.17,Wunderground v.1.15,2013-03-11 04:52:00,